Le nostre stazioni meteo in Italia

Pubblicità
Il mio iltempo24.it
Vipiteno, Italia (16014): Temperatura & dewpoint: 10.02.2019 07:00:00 - 16.02.2019 07:00:00 (CET)Vipiteno, Italia (16014): velocità del vento: 10.02.2019 07:00:00 - 16.02.2019 07:00:00 (CET)Vipiteno, Italia (16014): direzione del vento: 10.02.2019 07:00:00 - 16.02.2019 07:00:00 (CET)Vipiteno, Italia (16014): precipitazioni: 10.02.2019 07:00:00 - 16.02.2019 07:00:00 (CET)
Data & Tempo tt [°C] td [°C] ff [km/h] ff [kn] dd rr [mm]
16.02.2019 07:00:00 - - - - - -
16.02.2019 06:00:00 -8,6 -10,7 0 0 N -
16.02.2019 05:00:00 -8,5 -10,8 2 1 SSE -
16.02.2019 04:00:00 -7,7 -10,0 2 1 NNO -
16.02.2019 03:00:00 -5,7 -8,0 0 0 N -
16.02.2019 02:00:00 -5,8 -8,6 4 2 ONO -
16.02.2019 01:00:00 -5,5 -8,9 0 0 N -
16.02.2019 00:00:00 -4,0 -7,8 2 1 O -
15.02.2019 23:00:00 -1,9 -6,0 0 0 N -
15.02.2019 22:00:00 -0,8 - 0 0 N -
15.02.2019 21:00:00 0,2 -5,3 4 2 NO -
15.02.2019 20:00:00 2,5 -4,1 4 2 N -
15.02.2019 19:00:00 4,8 -3,8 8 4 O -
15.02.2019 18:00:00 5,8 -3,9 9 5 NO -
15.02.2019 17:00:00 9,9 -6,2 13 7 O -
15.02.2019 16:00:00 11,5 -7,0 13 7 NNE -
15.02.2019 15:00:00 12,2 -7,9 13 7 ONO -
15.02.2019 14:00:00 11,3 -7,2 22 12 N -
15.02.2019 13:00:00 8,0 -4,3 5 3 O -
15.02.2019 12:00:00 4,5 -2,9 4 2 O -
15.02.2019 11:00:00 1,5 -3,3 4 2 NE -
15.02.2019 10:00:00 -3,3 -5,2 0 0 N -
15.02.2019 09:00:00 -6,7 -8,4 2 1 ONO -
15.02.2019 08:00:00 -8,4 -10,2 2 1 O -
15.02.2019 07:00:00 -8,3 -10,4 4 2 N -
15.02.2019 06:00:00 -7,8 -9,9 0 0 N -
15.02.2019 05:00:00 -6,5 -8,6 4 2 SE -
15.02.2019 04:00:00 -6,8 -9,2 2 1 SO -
15.02.2019 03:00:00 -5,8 -8,4 2 1 NO -
15.02.2019 02:00:00 -5,3 -8,4 2 1 S -
15.02.2019 01:00:00 -4,4 -7,9 2 1 O -
15.02.2019 00:00:00 -2,6 -6,7 2 1 NNE -
14.02.2019 23:00:00 -1,1 -5,9 4 2 SO -
14.02.2019 22:00:00 0,0 -5,3 4 2 O -
14.02.2019 21:00:00 2,5 -3,1 8 4 ONO -
14.02.2019 20:00:00 3,0 - - - - -
14.02.2019 19:00:00 3,7 -3,9 9 5 NO -
14.02.2019 18:00:00 4,8 -3,8 5 3 O -
14.02.2019 17:00:00 6,8 -3,3 9 5 OSO -
14.02.2019 16:00:00 8,8 -5,6 11 6 SSO -
14.02.2019 15:00:00 9,6 -5,3 13 7 NO -
14.02.2019 14:00:00 8,7 -5,0 15 8 ONO -
14.02.2019 13:00:00 6,6 -2,2 5 3 NNO -
14.02.2019 12:00:00 - - - - - -
14.02.2019 11:00:00 0,5 -1,6 2 1 N -
14.02.2019 10:00:00 -3,2 -4,6 2 1 NO -
14.02.2019 09:00:00 -6,5 -7,9 0 0 N -
14.02.2019 08:00:00 -8,7 -10,4 2 1 OSO -
14.02.2019 07:00:00 -8,0 -9,7 2 1 O 0,0
14.02.2019 06:00:00 -7,6 -9,3 2 1 SSE -
14.02.2019 05:00:00 -7,8 -9,8 2 1 NO -
14.02.2019 04:00:00 -6,7 -8,5 2 1 N -
14.02.2019 03:00:00 -6,3 -8,4 2 1 SO -
14.02.2019 02:00:00 -6,0 -8,5 0 0 N -
14.02.2019 01:00:00 -5,3 -8,4 0 0 N 0,0
14.02.2019 00:00:00 -4,2 -7,5 0 0 N -
13.02.2019 23:00:00 -3,4 -7,3 2 1 S -
13.02.2019 22:00:00 -1,5 -5,8 4 2 O -
13.02.2019 21:00:00 0,2 -4,3 0 0 N -
13.02.2019 20:00:00 1,7 -3,5 4 2 S -
13.02.2019 19:00:00 2,4 -3,2 9 5 ONO 0,0
13.02.2019 18:00:00 3,3 -2,7 15 8 O -
13.02.2019 17:00:00 5,4 -2,8 13 7 O -
13.02.2019 16:00:00 6,6 -2,9 16 9 NO -
13.02.2019 15:00:00 7,9 -3,4 13 7 NO -
13.02.2019 14:00:00 6,9 -4,0 8 4 NO -
13.02.2019 13:00:00 4,9 -4,5 5 3 N -
13.02.2019 12:00:00 2,7 -5,8 5 3 O -
13.02.2019 11:00:00 0,9 -6,5 5 3 O -
13.02.2019 10:00:00 -1,7 -7,5 11 6 O -
13.02.2019 09:00:00 -4,0 -7,7 5 3 ONO -
13.02.2019 08:00:00 -7,6 -11,3 4 2 OSO -
13.02.2019 07:00:00 -7,4 -11,1 4 2 ONO 0,0
13.02.2019 06:00:00 -7,8 -12,2 4 2 OSO -
13.02.2019 05:00:00 -6,3 -11,1 4 2 NO -
13.02.2019 04:00:00 -5,0 -9,9 5 3 O -
13.02.2019 03:00:00 -4,8 -9,9 11 6 O -
13.02.2019 02:00:00 -4,0 -9,5 13 7 O -
13.02.2019 01:00:00 -3,5 -9,0 15 8 O 0,0
13.02.2019 00:00:00 -1,6 -8,4 16 9 OSO -
12.02.2019 23:00:00 -0,4 -7,5 18 10 NNO -
12.02.2019 22:00:00 0,1 -8,2 16 9 ONO -
12.02.2019 21:00:00 0,2 -7,7 22 12 O -
12.02.2019 20:00:00 0,7 -8,1 21 11 NO -
12.02.2019 19:00:00 1,0 -8,4 22 12 ONO -
12.02.2019 18:00:00 1,1 -8,0 24 13 NNO -
12.02.2019 17:00:00 2,0 -8,0 24 13 ONO -
12.02.2019 16:00:00 2,4 -7,6 16 9 OSO -
12.02.2019 15:00:00 3,3 -7,3 16 9 ONO -
12.02.2019 14:00:00 3,2 -8,0 13 7 NNO -
12.02.2019 13:00:00 3,4 -8,4 8 4 NO -
12.02.2019 12:00:00 2,8 -8,4 18 10 OSO -
12.02.2019 11:00:00 1,8 -7,4 18 10 O -
12.02.2019 10:00:00 1,4 -7,2 21 11 ONO -
12.02.2019 09:00:00 0,8 -7,3 21 11 ONO -
12.02.2019 08:00:00 0,3 -7,1 22 12 ONO -
12.02.2019 07:00:00 0,2 -7,4 22 12 ONO 0,0
12.02.2019 06:00:00 0,3 -7,1 21 11 NO -
12.02.2019 05:00:00 0,6 -7,5 16 9 O -
12.02.2019 04:00:00 0,7 -6,7 15 8 OSO -
12.02.2019 03:00:00 0,7 -7,2 15 8 NO -
12.02.2019 02:00:00 0,3 -6,0 11 6 OSO -
12.02.2019 01:00:00 0,3 -5,8 13 7 ONO 0,0
12.02.2019 00:00:00 0,5 -6,7 13 7 OSO -
11.02.2019 23:00:00 0,2 -5,9 15 8 O -
11.02.2019 22:00:00 0,2 -6,5 21 11 NO -
11.02.2019 21:00:00 0,6 -7,5 18 10 ONO -
11.02.2019 20:00:00 0,6 -8,2 16 9 O -
11.02.2019 19:00:00 0,6 -8,2 15 8 ONO -
11.02.2019 18:00:00 0,9 -7,7 18 10 NNO -
11.02.2019 17:00:00 1,2 -6,7 15 8 O -
11.02.2019 16:00:00 1,5 -6,9 15 8 SO -
11.02.2019 15:00:00 1,3 -5,9 18 10 OSO -
11.02.2019 14:00:00 1,3 -5,9 22 12 OSO -
11.02.2019 13:00:00 0,8 -5,3 21 11 O -
11.02.2019 12:00:00 0,8 -4,7 18 10 ONO -
11.02.2019 11:00:00 1,2 -5,4 22 12 O -
11.02.2019 10:00:00 1,0 -4,5 15 8 ONO -
11.02.2019 09:00:00 1,2 -4,3 15 8 OSO -
11.02.2019 08:00:00 0,6 -4,7 15 8 OSO -
11.02.2019 07:00:00 -0,4 -3,3 13 7 SO 0,0
11.02.2019 06:00:00 -0,3 -2,9 16 9 O -
11.02.2019 05:00:00 1,0 -3,4 13 7 NO -
11.02.2019 04:00:00 -0,9 -3,6 11 6 ONO -
11.02.2019 03:00:00 -0,7 -2,3 11 6 O -
11.02.2019 02:00:00 0,0 -1,5 11 6 ONO -
11.02.2019 01:00:00 0,7 -0,8 8 4 SSO 0,0
11.02.2019 00:00:00 1,0 -0,5 2 1 ONO -
10.02.2019 23:00:00 1,0 -0,5 9 5 SO -
10.02.2019 22:00:00 0,0 -1,5 2 1 O -
10.02.2019 21:00:00 -0,1 -1,6 0 0 N -
10.02.2019 20:00:00 0,0 -1,5 0 0 N -
10.02.2019 19:00:00 -0,1 -1,6 0 0 N 0,0
10.02.2019 18:00:00 -0,2 -1,7 2 1 O -
10.02.2019 17:00:00 -0,1 -1,6 2 1 ESE -
10.02.2019 16:00:00 -0,4 -1,9 0 0 N -
10.02.2019 15:00:00 -0,6 -2,1 2 1 SE -
10.02.2019 14:00:00 -0,8 -2,3 0 0 N -
10.02.2019 13:00:00 -1,3 -2,8 2 1 S 0,0
10.02.2019 12:00:00 -1,8 -3,2 0 0 N -
10.02.2019 11:00:00 -2,2 -3,6 0 0 N -
10.02.2019 10:00:00 -3,1 -4,5 2 1 NO -
10.02.2019 09:00:00 -4,0 -5,4 2 1 NE -
10.02.2019 08:00:00 -4,8 -6,2 2 1 S -
10.02.2019 07:00:00 -5,5 -6,9 0 0 N 0,0

tt = Temperatura
td = dewpoint
ff = velocità del vento
dd = direzione del vento
rr = precipitazioni

Stazioni seguenti

WeatherPro
AMSI
MeteoEarth